Location: Newark
(34.1333°N, 7.9667°W)
Time: 02:22:32
(UTC+00:00)

Transit 2A - Pass Details

Date: 16 June 2021
Orbit: 598 x 960 km, 66.7° (Epoch: 31 July)

Event Time Altitude Azimuth Distance (km) Brightness Sun altitude
Rises 15:54:51 0° 156° (SSE) 2,907 8.8 44.9°
Reaches altitude 10° 15:59:25 10° 112° (ESE) 1,953 7.8 43.9°
Maximum altitude 15:59:56 10° 105° (ESE) 1,937 7.8 43.8°
Drops below altitude 10° 16:00:28 10° 98° (E) 1,946 7.8 43.7°
Sets 16:04:55 0° 55° (NE) 2,841 8.6 42.8°
